Location: ??????????
(48.4699°N, 37.9573°E)
Time: 02:23:07
(UTC+00:00)

Aureole 2 Rocket - Pass Details

Date: 20 January 2021
Orbit: 286 x 376 km, 73.9° (Epoch: 24 February)

Event Time Altitude Azimuth Distance (km) Brightness Sun altitude
Rises 14:58:07 0° 158° (SSE) 2,210 5.9 -8.3°
Reaches altitude 10° 15:00:51 10° 129° (SE) 1,392 4.6 -8.7°
Maximum altitude 15:02:22 13° 99° (E) 1,238 4.1 -9.0°
Enters shadow 15:03:03 12° 85° (E) 1,280 4.1 -9.1°
